Location: Mount Cross
(36.6390°N, 79.4878°W)
Time: 18:14:00
(UTC+00:00)

Courier 1B Rocket - Pass Details

Date: 21 March 2023
Orbit: 920 x 1202 km, 28.2° (Epoch: 08 June)

Event Time Altitude Azimuth Distance (km) Brightness Sun altitude
Rises 04:14:04 0° 247° (WSW) 3,628 - -49.7°
Reaches altitude 10° 04:16:55 10° 240° (WSW) 2,653 - -50.0°
Maximum altitude 04:22:41 37° 174° (S) 1,389 - -50.5°
Drops below altitude 10° 04:28:20 10° 109° (ESE) 2,604 - -50.9°
Sets 04:31:07 0° 101° (E) 3,554 - -51.2°
